Theta_e
314 311 313 316 316 316 314 312 310 310 309 310 310 310 311 310 308 306 304 305 304 303 304 304 304 304 304 304 305 306 306 307 308 309 312 313 314 312 312 311 309 307 306
310 311 314 315 315 314 313 311 311 310 309 309 309 309 310 310 308 305 303 303 303 301 302 302 303 303 304 304 304 305 306 306 307 308 309 310 312 312 308 309 309 306 305
311 312 314 314 314 313 312 311 310 310 309 307 307 307 307 307 307 306 304 302 301 300 300 300 301 302 302 302 303 303 304 306 306 306 307 309 309 308 308 308 307 305 305
310 312 313 314 313 312 311 310 310 308 307 307 309 309 309 308 307 306 304 302 301 300 299 299 299 300 300 301 301 302 303 304 305 306 305 306 306 308 308 307 306 304 304
309 312 312 313 312 310 310 310 309 307 305 305 306 306 306 305 305 304 303 303 301 300 299 299 298 299 299 299 299 301 301 302 303 303 304 305 305 306 306 306 304 303 303
309 311 311 311 310 309 309 309 308 307 305 305 304 305 306 305 305 304 304 303 302 302 300 299 298 297 297 298 298 298 300 300 300 301 301 302 303 303 303 304 303 303 302
311 312 311 310 310 309 309 308 307 306 305 305 304 304 304 304 304 304 304 303 303 302 302 299 298 298 295 295 295 297 298 298 299 299 299 300 300 301 301 302 302 302 301
312 312 312 311 311 310 309 308 307 306 305 305 305 304 303 303 303 303 303 303 302 302 300 299 297 295 294 294 294 296 296 296 297 298 298 298 298 299 299 300 300 301 300
311 311 310 310 310 310 309 309 308 306 305 305 304 303 303 302 303 302 302 302 302 301 301 299 297 295 294 294 294 295 295 295 296 296 296 296 296 297 297 298 298 299 300
308 307 305 305 305 306 306 306 306 306 306 305 304 303 302 302 302 301 302 301 301 301 301 299 296 295 294 294 294 294 295 294 295 295 295 295 295 295 295 296 297 297 298
305 304 303 302 302 302 303 304 304 305 304 303 303 302 302 301 301 301 301 301 301 300 299 297 295 294 294 294 294 294 294 294 294 295 294 294 294 293 294 294 295 295 296
303 303 302 302 301 302 302 303 304 304 303 302 302 301 300 300 300 300 300 299 299 298 297 296 294 294 293 293 294 294 295 295 295 295 295 294 293 293 293 293 293 293 294
303 302 302 301 301 300 300 300 301 301 301 300 300 299 298 298 297 296 295 295 295 295 295 295 295 296 297 298 298 296 295 294 294 294 293 293 293 293 293 293 292 292 292
302 302 301 300 299 299 299 299 298 298 298 298 297 297 296 296 296 295 295 295 294 294 294 294 294 294 294 294 293 293 293 294 294 293 293 292 292 292 292 292 292 292 292
301 301 300 298 296 295 295 294 294 293 293 293 292 291 291 291 291 291 290 290 290 290 291 291 291 292 292 292 293 293 293 294 294 293 293 292 292 292 291 292 292 292 292
300 298 297 296 294 293 292 291 291 291 291 291 291 291 291 290 290 290 289 289 289 289 288 288 288 289 289 289 289 290 292 292 293 293 292 292 292 292 290 290 291 292 292
300 298 297 296 294 292 291 291 291 290 290 290 290 290 290 290 290 289 289 289 289 288 288 288 288 287 288 288 288 288 289 290 291 292 292 292 291 291 290 290 291 291 292
300 298 297 296 294 292 291 290 290 290 290 290 290 290 290 289 289 289 289 289 289 289 288 288 287 287 287 287 288 288 288 288 289 289 289 290 290 290 290 290 290 290 290
300 298 297 295 293 291 291 290 290 289 289 289 289 289 289 289 289 289 289 289 289 289 288 288 287 286 286 286 287 288 288 287 288 288 288 288 288 288 289 290 290 290 290
298 298 296 294 292 290 289 289 289 289 289 289 288 288 288 288 288 288 288 288 288 288 288 287 286 286 286 286 287 287 287 287 287 288 288 288 288 289 289 290 291 290 290
296 295 293 291 290 288 288 289 289 289 288 287 286 286 286 286 286 286 286 287 287 287 287 286 286 286 286 286 286 287 287 287 288 288 288 288 289 289 289 290 290 290 290
294 291 291 290 289 288 288 288 288 287 286 286 285 285 285 285 285 285 286 286 286 286 286 286 286 286 286 286 286 286 287 287 288 288 288 288 288 288 288 289 289 290 289
290 289 289 289 288 287 286 286 286 285 285 285 285 285 285 285 285 285 286 286 285 286 286 286 286 286 286 286 286 286 287 287 287 288 288 288 289 289 289 289 289 289 289
290 289 288 287 287 286 285 285 285 285 285 285 285 285 285 285 285 285 285 285 285 285 285 285 286 286 286 286 286 287 287 287 287 288 288 288 288 288 288 289 289 289 289
288 287 286 286 286 285 285 285 284 284 284 284 284 284 284 285 285 285 285 285 285 285 285 285 286 286 287 287 287 287 287 287 287 287 287 288 288 288 288 288 288 288 289
286 285 285 286 285 285 284 284 284 283 283 284 284 284 284 284 284 284 285 284 285 285 285 285 285 286 286 286 286 286 286 286 286 286 287 287 287 287 287 287 287 288 288
Wind_Speed
9 8 8 11 13 14 14 12 10 8 6 5 5 5 5 3 2 1 1 2 4 5 6 6 7 7 8 9 10 8 9 10 12 5 0 1 2 2 1 1 3 8 9
10 10 9 11 13 14 13 11 10 8 7 6 5 3 5 4 3 2 0 1 3 4 5 6 6 6 6 8 9 10 7 8 11 7 4 2 3 4 4 4 1 6 7
13 11 11 12 13 14 13 11 9 8 6 7 7 5 5 3 3 3 2 1 1 3 4 5 5 5 6 7 7 8 8 7 7 9 5 2 3 9 2 2 2 8 6
9 9 12 12 13 12 11 9 9 8 7 7 6 5 4 5 5 4 3 2 0 1 3 4 4 5 5 5 5 6 6 6 7 4 6 3 4 3 4 2 4 9 6
9 10 12 13 11 10 9 8 8 7 7 6 6 5 5 4 4 3 3 3 2 1 2 2 3 4 4 5 5 5 5 5 4 5 5 4 4 3 4 6 8 10 8
8 10 11 11 10 8 8 8 7 7 7 6 5 4 4 4 4 4 4 3 3 2 3 3 4 4 4 4 4 4 3 3 3 4 4 5 5 6 6 7 10 13 8
9 10 11 10 9 9 8 7 7 6 6 5 5 4 4 4 4 4 4 3 3 2 3 4 5 5 6 6 6 5 5 5 5 5 6 6 7 7 9 10 12 8 13
8 8 8 7 8 8 8 7 7 7 7 6 5 5 4 3 3 3 3 3 3 4 5 6 6 7 7 7 7 6 6 6 6 7 7 8 9 8 9 10 11 9 10
7 6 5 4 5 5 6 6 5 5 5 5 4 4 3 3 3 4 5 4 5 6 6 7 8 8 8 8 8 8 8 8 8 9 9 10 10 10 10 11 11 11 7
6 5 4 3 1 1 2 3 4 4 3 4 5 5 5 5 4 4 4 5 6 7 7 8 9 9 9 9 9 10 10 10 10 11 11 12 12 12 12 12 13 13 15
7 6 7 6 4 2 1 2 3 3 3 2 2 2 2 3 3 3 4 5 6 6 7 8 9 9 10 10 11 13 13 13 14 14 14 16 14 15 14 14 14 15 16
7 8 9 10 11 10 7 6 4 4 3 3 3 2 1 1 1 2 3 5 5 6 8 9 9 9 10 11 13 15 16 17 18 18 17 18 16 16 16 16 16 16 17
9 8 10 11 12 12 12 10 8 7 6 6 6 5 5 4 3 3 4 4 5 6 7 9 11 12 15 18 20 19 20 20 19 19 19 19 18 18 18 17 17 17 17
8 8 8 10 11 11 12 13 13 12 11 11 10 9 7 6 5 5 5 6 7 8 10 12 14 16 17 17 19 19 20 21 21 20 19 20 19 20 18 18 18 19 19
9 8 8 9 10 10 11 11 11 10 9 9 8 7 5 5 5 6 7 8 9 10 12 14 16 17 17 17 17 19 22 23 23 22 21 20 20 22 23 21 21 20 20
9 8 8 9 8 8 8 7 7 6 6 6 5 4 5 6 7 8 9 11 12 13 14 17 18 19 20 21 24 23 23 24 24 24 23 22 21 22 24 25 26 25 24
10 9 8 7 7 6 5 4 3 2 2 2 3 6 8 10 11 11 12 13 14 14 15 18 19 22 23 22 25 25 24 25 27 28 28 27 26 25 24 25 25 25 26
10 8 8 7 6 4 2 1 2 3 5 7 10 12 15 16 17 18 18 19 19 19 21 22 22 24 26 24 24 23 23 24 26 28 29 29 29 29 27 26 25 25 25
11 9 8 6 5 3 1 3 6 8 10 13 14 16 18 20 22 23 25 25 24 24 24 24 25 24 26 24 23 22 21 24 26 27 27 27 27 28 27 25 25 25 26
10 9 7 5 3 1 3 6 9 11 14 16 18 19 20 22 24 24 25 26 25 26 26 27 27 27 26 25 23 22 22 26 27 28 27 25 26 27 25 25 24 25 26
9 7 5 3 2 3 5 9 12 14 16 17 19 20 21 22 24 25 25 25 26 27 29 29 30 29 27 27 26 24 23 24 25 25 25 25 24 24 25 24 26 26 26
7 5 3 2 3 6 8 11 13 15 16 18 20 21 23 24 24 25 27 27 27 28 30 30 30 28 26 23 24 23 22 23 26 27 27 27 26 25 26 27 27 27 28
7 5 3 5 5 7 8 12 15 17 19 20 22 23 25 25 25 26 27 26 27 26 26 26 25 26 24 22 21 22 23 24 26 25 25 27 29 30 30 28 28 27 26
4 2 3 6 10 10 12 13 15 16 19 22 23 23 24 25 25 24 24 24 26 26 26 25 24 24 23 22 22 20 22 23 24 21 23 25 26 27 27 27 26 25 25
3 4 6 9 11 12 13 15 16 17 20 21 22 22 21 23 25 25 24 25 27 26 27 25 24 23 22 22 23 25 24 23 22 25 24 22 21 21 21 20 21 21 22
2 5 8 9 12 13 15 14 15 16 18 21 21 21 23 24 25 25 27 26 27 27 27 28 28 28 26 26 25 24 23 24 24 25 21 19 17 17 19 20 20 19 20
Wind_Direction
184 179 182 181 173 175 175 176 169 175 173 163 164 185 189 177 158 102 40 39 26 26 27 26 22 21 22 20 17 8 9 9 6 351 72 214 170 158 206 313 345 355 347
187 180 173 171 176 176 176 172 173 177 189 190 195 181 177 194 192 208 330 26 31 34 34 33 28 25 25 25 22 19 13 18 17 12 319 319 204 240 302 243 263 351 336
188 180 174 172 173 174 174 175 177 181 189 192 194 190 188 192 201 216 220 256 43 37 41 38 33 27 30 21 19 20 22 15 18 27 3 316 341 329 265 270 316 348 334
196 175 171 169 172 171 171 173 180 184 190 193 192 200 219 221 215 202 207 214 183 34 34 38 30 28 28 21 14 15 14 6 8 0 17 18 335 331 316 284 309 331 326
190 176 172 169 169 168 170 172 176 184 192 199 204 206 212 208 192 202 204 214 243 297 344 9 8 7 10 6 13 8 7 5 360 357 343 327 322 306 302 306 330 328 325
171 163 158 159 162 165 172 180 184 190 202 202 205 210 214 208 206 212 217 221 235 268 316 335 337 338 335 336 341 344 342 344 335 325 317 315 318 319 302 301 314 317 324
156 156 160 166 169 179 185 190 195 199 198 204 212 217 220 221 228 228 234 233 247 255 275 298 308 312 317 320 325 324 321 320 318 313 307 295 285 284 286 292 297 295 304
146 152 159 172 185 191 193 198 202 205 208 213 218 227 234 237 246 243 243 244 251 261 277 288 298 302 304 302 302 298 294 292 290 285 284 285 284 280 277 277 297 305 299
139 139 145 168 180 189 199 209 217 224 223 226 230 238 243 246 241 242 246 249 261 265 270 276 281 284 285 283 284 283 287 287 287 283 283 279 279 273 271 269 271 281 294
113 94 79 66 107 192 209 217 227 232 227 220 219 221 230 245 251 253 252 259 264 270 273 280 289 293 293 294 293 291 290 287 286 283 283 282 281 278 272 267 265 259 263
91 78 70 61 60 80 127 174 188 194 191 186 202 221 237 252 255 262 273 279 281 282 283 288 293 295 296 295 291 288 286 283 283 279 276 277 276 274 273 268 263 261 258
95 86 78 73 67 66 72 76 85 107 113 127 130 129 135 187 231 274 283 283 279 277 279 283 287 288 289 289 287 285 283 281 281 281 279 277 280 274 274 270 266 265 265
111 101 90 81 78 76 78 82 89 99 105 111 109 97 81 70 48 19 353 333 318 308 298 296 289 283 283 285 284 279 278 280 280 280 280 280 280 275 273 271 269 269 267
125 115 107 98 91 85 81 78 75 75 77 79 78 73 62 51 38 22 8 351 333 320 312 303 297 295 294 290 287 285 283 282 280 279 276 274 271 272 274 273 270 270 268
144 137 123 108 97 90 83 80 79 76 77 79 74 65 48 27 6 350 340 331 323 315 308 303 299 297 294 291 290 291 287 283 281 277 274 273 271 274 274 270 271 270 269
147 138 131 124 109 99 92 88 84 78 72 66 57 31 1 343 330 320 315 313 311 309 307 304 300 297 292 287 289 291 286 283 279 278 277 276 277 278 281 277 272 263 264
160 153 142 128 117 107 101 96 88 66 28 360 336 324 315 309 305 301 299 299 299 298 300 300 298 294 291 287 290 291 286 283 279 277 276 276 274 276 276 274 272 269 260
157 152 147 143 140 137 128 133 286 296 308 315 318 319 316 310 306 299 295 296 296 297 298 298 296 291 288 287 288 288 289 283 280 278 276 275 276 274 274 272 270 268 266
157 154 150 147 157 174 219 303 313 319 321 322 318 313 310 305 302 296 293 291 290 291 292 291 289 286 285 285 283 287 288 284 280 277 275 273 273 273 272 268 267 270 271
149 150 156 162 167 112 333 325 322 323 324 322 315 308 305 302 300 297 295 290 284 284 288 288 286 285 282 284 282 281 283 282 279 279 277 275 271 272 272 267 266 268 270
146 145 147 142 74 20 343 322 317 316 315 311 306 304 302 299 296 296 294 291 287 286 286 286 286 285 284 284 282 280 279 277 280 280 280 278 277 278 277 273 265 266 273
132 130 127 68 28 353 335 317 309 310 309 307 304 304 303 302 299 298 297 294 291 289 287 287 287 285 288 286 283 280 279 281 279 280 281 282 283 282 281 276 271 271 272
121 98 58 330 340 336 324 309 312 314 313 312 309 308 307 305 304 302 300 298 297 294 290 288 288 290 293 292 288 287 285 283 280 278 279 280 281 283 282 277 273 269 265
107 59 352 324 320 325 320 314 315 316 313 309 308 309 308 309 310 309 305 302 300 296 292 290 289 290 292 292 291 287 288 286 280 280 282 283 283 283 281 280 275 266 263
56 355 325 315 315 318 318 319 317 316 311 311 311 311 310 310 310 309 309 307 299 296 294 291 286 284 284 289 292 294 297 296 292 291 288 283 279 280 279 278 275 273 266
355 317 309 311 315 316 314 315 315 314 310 309 310 311 311 311 311 312 310 310 303 302 298 291 290 294 294 295 298 300 299 297 299 297 291 290 290 287 286 284 283 274 264